Weather History for Patuxent River, MD

Change the Weather History Date:

Tuesday, December 13, 2011

  Actual Average Record
Temperature  
Mean Temperature 39 °F -  
Max Temperature 50 °F 48 °F 64 °F (1980)
Min Temperature 28 °F 31 °F 13 °F (1988)
Degree Days  
Heating Degree Days 26    
Moisture  
Dew Point 29 °F    
Average Humidity 71    
Maximum Humidity 93    
Minimum Humidity 38    
Precipitation  
Precipitation 0.00 in - - ()
Sea Level Pressure  
Sea Level Pressure 30.42 in    
Wind  
Wind Speed 7 mph (WNW)    
Max Wind Speed 20 mph    
Max Gust Speed 30 mph    
Visibility 8 miles    
Events      
Averages and records for this station are not official NWS values.
T = Trace of Precipitation, MM = Missing Value Source: NWS Daily Summary

Daily Weather History Graph

Daily Weather History Graph

Search for Another Location

Airport:

Trip Planner

Search our weather history database for the weather conditions in past years. The results will help you decide how hot, cold, wet, or windy it might be!

Date:

Astronomy

Dec. 13, 2011 Rise Set
Actual Time 7:13 AM EST 4:45 PM EST
Civil Twilight 6:44 AM EST 5:15 PM EST
Nautical Twilight 6:10 AM EST 5:48 PM EST
Astronomical Twilight 5:38 AM EST 6:20 PM EST
Moon 7:56 PM EST (12/13) 9:23 AM EST (12/13)
Length of Visible Light 10h 31m
Length of Day
9h 32m
Waning Gibbous, 90% of the Moon is Illuminated
Dec 13
Waning Gibbous
Dec 17
Last Quarter
Dec 24
New
Jan 1
First Quarter
Jan 9
Full

Hourly Weather History & Observations

Time (EST) Temp. Windchill Dew Point Humidity Pressure Visibility Wind Dir Wind Speed Gust Speed Precip Events Conditions
12:52 AM 32.0 °F 28.7 °F 28.0 °F 85% 30.46 in 9.0 mi West 3.5 mph - N/A   Clear
1:52 AM 28.9 °F 16.1 °F 27.0 °F 92% 30.45 in 8.0 mi NW 19.6 mph 29.9 mph N/A   Clear
2:52 AM 28.9 °F 25.2 °F 26.1 °F 89% 30.45 in 5.0 mi West 3.5 mph - N/A   Clear
3:27 AM 28.4 °F 23.3 °F 26.6 °F 93% 30.44 in 1.8 mi West 4.6 mph - N/A   Clear
3:38 AM 28.4 °F 23.3 °F 26.6 °F 93% 30.44 in 3.0 mi West 4.6 mph - N/A   Clear
3:52 AM 30.9 °F 27.5 °F 28.0 °F 89% 30.45 in 3.0 mi WSW 3.5 mph - N/A   Clear
4:10 AM 32.0 °F 28.7 °F 30.2 °F 93% 30.44 in 2.5 mi West 3.5 mph - N/A   Clear
4:20 AM 32.0 °F 28.7 °F 30.2 °F 93% 30.44 in 3.0 mi WSW 3.5 mph - N/A   Clear
4:52 AM 30.9 °F 26.2 °F 28.9 °F 92% 30.43 in 6.0 mi West 4.6 mph - N/A   Clear
5:52 AM 32.0 °F 28.7 °F 28.9 °F 88% 30.44 in 6.0 mi WSW 3.5 mph - N/A   Clear
5:58 AM 32.0 °F 27.5 °F 28.4 °F 87% 30.44 in 6.0 mi WSW 4.6 mph - N/A   Clear
6:52 AM 33.1 °F 27.7 °F 30.0 °F 89% 30.45 in 8.0 mi West 5.8 mph - N/A   Partly Cloudy
7:52 AM 34.0 °F 28.0 °F 30.9 °F 89% 30.45 in 9.0 mi West 6.9 mph - N/A   Partly Cloudy
8:52 AM 39.0 °F 35.7 °F 32.0 °F 76% 30.45 in 10.0 mi WNW 4.6 mph - N/A   Partly Cloudy
9:52 AM 42.1 °F 37.1 °F 30.0 °F 62% 30.45 in 10.0 mi NW 8.1 mph - N/A   Partly Cloudy
10:52 AM 45.0 °F 40.6 °F 28.0 °F 52% 30.45 in 10.0 mi WNW 8.1 mph - N/A   Partly Cloudy
11:52 AM 48.9 °F - 28.0 °F 44% 30.42 in 10.0 mi WNW 11.5 mph - N/A   Partly Cloudy
12:52 PM 50.0 °F - 25.0 °F 38% 30.40 in 10.0 mi WNW 11.5 mph - N/A   Partly Cloudy
1:52 PM 50.0 °F - 30.9 °F 48% 30.38 in 10.0 mi North 9.2 mph - N/A   Scattered Clouds
2:52 PM 50.0 °F - 30.0 °F 46% 30.37 in 10.0 mi NNE 8.1 mph - N/A   Mostly Cloudy
3:52 PM 48.9 °F - 28.9 °F 46% 30.38 in 10.0 mi North 6.9 mph - N/A   Mostly Cloudy
4:52 PM 45.0 °F 43.5 °F 28.9 °F 53% 30.38 in 10.0 mi NNW 3.5 mph - N/A   Scattered Clouds
5:52 PM 45.0 °F 41.8 °F 30.0 °F 56% 30.38 in 10.0 mi NW 5.8 mph - N/A   Scattered Clouds
6:52 PM 39.0 °F 35.7 °F 30.9 °F 73% 30.39 in 10.0 mi WNW 4.6 mph - N/A   Partly Cloudy
7:52 PM 43.0 °F 38.2 °F 30.0 °F 60% 30.39 in 10.0 mi NW 8.1 mph - N/A   Clear
8:52 PM 41.0 °F 36.4 °F 30.0 °F 65% 30.40 in 10.0 mi WNW 6.9 mph - N/A   Clear
9:52 PM 43.0 °F 38.2 °F 28.9 °F 58% 30.41 in 10.0 mi NW 8.1 mph - N/A   Partly Cloudy
10:52 PM 42.1 °F 37.1 °F 27.0 °F 55% 30.42 in 10.0 mi WNW 8.1 mph - N/A   Scattered Clouds
11:52 PM 42.1 °F 36.1 °F 28.9 °F 60% 30.41 in 10.0 mi NW 10.4 mph - N/A   Clear